| Shipment Reliability and Frequency | Volume of Goods |
|---|---|
| Avg. Shipments per Month: 3.33 | Average TEU per month: 5.25 |
| Active Months: 12 | Average TEU per Shipment: 1.57 |
| Shipment Frequency Std. Dev.: 2.06 |
| Company Name | Shipments |
|---|---|
| SCHROEDER INDUSTRIES LCC | 66 shipments |
| TREMEC CORP | 17 shipments |
| BOSCH REXROTH CORP | 2 shipments |
| AGCO PARTS | 1 shipments |
| CEMEX CLINCHFIELD PLANT | 1 shipments |
| HS Code | Shipments |
|---|---|
| 841340 Pumps; concrete pumps | 37 shipments |
| 841340.0 Pumps; for liquids, whether or not fitted with measuring device, liquid elevators | 26 shipments |
| 842139 Machinery; for filtering or purifying gases, other than intake air filters for internal combustion engines | 12 shipments |
| 841590 Air conditioning machines; with motor driven fan and elements for temperature control, parts thereof | 3 shipments |
| 271019 Petroleum oils and oils from bituminous minerals, not containing biodiesel, not crude, not waste oils; preparations n.e.c, containing by weight 70% or more of petroleum oils or oils from bituminous minerals; not light oils and preparations | 1 shipments |
| 290715 Monophenols; naphthols and their salts | 1 shipments |
| 820120 Tools, hand; spades, shovels, mattocks, picks, hoes, forks, rakes; axes, bill hooks etc; secateurs and pruners of any kind; scythes, sickles, hay knives, hedge shears, timber wedges and other tools used in agriculture, horticulture, forestry | 1 shipments |
| 841460 Hoods; ventilating or recycling hoods incorporating a fan, whether or not fitted with filters, having a maximum horizontal side not exceeding 120cm | 1 shipments |
| 841520 Air conditioning machines; comprising a motor driven fan and elements for changing the temperature and humidity, of a kind used for persons, in motor vehicles | 1 shipments |
| 842129.0 Centrifuges, including centrifugal dryers; filtering or purifying machinery and apparatus for liquids or gases | 1 shipments |
| 842542.0 Pulley tackle and hoists other than skip hoists; winches and capstans; jacks | 1 shipments |
| 847989 Machines and mechanical appliances; having individual functions, n.e.c. or included in this chapter | 1 shipments |
| 860210.0 Rail locomotives; (other than those of heading no. 8601), locomotive tenders | 1 shipments |
| Arrival Date | Bill Of Lading | Consignee | Weight | HS Code | Description |
|---|---|---|---|---|---|
| 2026-07-27 | IILU158160200 | SCHROEDER INDUSTRIES LCC | 909.92 kg | 841340 | PUMPS AND VALVES PUMPS AND VALVES |
| 2026-07-27 | IILU158266300 | SCHROEDER INDUSTRIES LCC | 201.85 kg | 841340 | PUMPS AND VALVES |
| 2026-07-27 | IILU158266700 | SCHROEDER INDUSTRIES LCC | 257.64 kg | 841340 | PUMPS AND VALVES |
| 2026-07-27 | IILU158266800 | SCHROEDER INDUSTRIES LCC | 201.85 kg | 841340 | PUMPS AND VALVES |
| 2026-07-14 | IILU157996800 | SCHROEDER INDUSTRIES LCC | 909.92 kg | 841340 | PUMPS AND VALVES |
| 2026-07-06 | IILU157594300 | SCHROEDER INDUSTRIES LCC | 694.92 kg | 841340 | PUMPS AND VALVES |
| 2026-06-16 | IILU156836700 | SCHROEDER INDUSTRIES LCC | 314.8 kg | 841340 | PUMPS AND VALVES |
| 2026-05-19 | IILU156118400 | SCHROEDER INDUSTRIES LCC | 1455.6 kg | 841340 | PUMPS AND VALVES |
| 2026-05-19 | IILU156127300 | SCHROEDER INDUSTRIES LCC | 743.9 kg | 841340 | PUMPS AND VALVES |
| 2026-05-19 | IILU156192900 | SCHROEDER INDUSTRIES LCC | 1455.6 kg | 841340 | PUMPS AND VALVES PUMPS AND VALVES |
| 2026-04-20 | IILU155365000 | SCHROEDER INDUSTRIES LCC | 69.85 kg | 841340.0 | PUMPS AND VALVES |
| 2026-04-07 | IILU154790200 | SCHROEDER INDUSTRIES LCC | 199.58 kg | 841340.0 | PUMPS AND VALVES |
| 2026-04-07 | IILU154800300 | SCHROEDER INDUSTRIES LCC | 454.96 kg | 841340.0 | PUMPS AND VALVES |
| 2026-04-07 | IILU154845500 | SCHROEDER INDUSTRIES LCC | 727.57 kg | 841340.0 | PUMPS AND VALVES |
| 2026-04-07 | IILU155131100 | SCHROEDER INDUSTRIES LCC | 502.59 kg | 841340.0 | PUMPS AND VALVES, NOS |
| 2026-03-31 | IILU154761600 | SCHROEDER INDUSTRIES LCC | 727.57 kg | 841340.0 | PUMPS AND VALVES |
| 2026-03-31 | IILU154773700 | SCHROEDER INDUSTRIES LCC | 56.7 kg | 841340.0 | PUMPS AND VALVES |
| 2026-03-31 | IILU154774500 | SCHROEDER INDUSTRIES LCC | 277.6 kg | 860210.0 | PREFILTER, DIESEL FILTRATION |
| 2026-03-24 | IILU154430800 | SCHROEDER INDUSTRIES LCC | 277.6 kg | 841340.0 | PUMPS AND VALVES |
| 2026-03-24 | IILU154386200 | SCHROEDER INDUSTRIES LCC | 283.95 kg | 841340.0 | PUMPS AND VALVES |
| 2026-03-10 | IILU153966500 | SCHROEDER INDUSTRIES LCC | 387.37 kg | 841340.0 | PUMPS AND VALVES |
| 2026-02-17 | IILU153366300 | SCHROEDER INDUSTRIES LCC | 599.66 kg | 842542.0 | HYDRAULIC FILTER SYSTEMS |
| 2026-02-11 | IILU153060800 | SCHROEDER INDUSTRIES LCC | 289.85 kg | 841340.0 | PUMPS AND VALVES |
| 2026-02-11 | IILU153060900 | SCHROEDER INDUSTRIES LCC | 56.7 kg | 841340.0 | PUMPS AND VALVES |
| 2026-02-11 | IILU153061600 | SCHROEDER INDUSTRIES LCC | 1455.6 kg | 841340.0 | PUMPS AND VALVES PUMPS AND VALVES |
| 2026-02-06 | IILU152925600 | SCHROEDER INDUSTRIES LCC | 555.66 kg | 841340.0 | PUMPS AND VALVES |
| 2026-01-06 | IILU152409100 | SCHROEDER INDUSTRIES LCC | 1455.6 kg | 841340.0 | PUMPS AND VALVES |
| 2025-12-01 | IILU151386500 | SCHROEDER INDUSTRIES LCC | 735.74 kg | 842129.0 | FILTERS FOR LIQUIDS, NOS HS CODE |
| 2025-11-24 | IILU151072300 | SCHROEDER INDUSTRIES LCC | 119.75 kg | 841340.0 | PUMPS AND VALVES HS CODE - |
| 2025-11-17 | IILU150919800 | SCHROEDER INDUSTRIES LCC | 56.7 kg | 841340.0 | PUMPS AND VALVES |
| 2025-11-11 | IILU150643900 | SCHROEDER INDUSTRIES LCC | 1091.82 kg | 841340.0 | PUMPS AND VALVES |
| 2025-11-04 | IILU150529000 | SCHROEDER INDUSTRIES LCC | 358.8 kg | 841340.0 | PUMPS AND VALVES |
| 2025-10-28 | IILU150343900 | SCHROEDER INDUSTRIES LCC | 116.58 kg | 841340.0 | PUMPS AND VALVES |
| 2025-10-13 | IILU149977700 | SCHROEDER INDUSTRIES LCC | 116.58 kg | 841340.0 | PUMPS AND VALVES |
| 2025-09-22 | IILU149466200 | SCHROEDER INDUSTRIES LCC | 1139.9 kg | 841340.0 | PUMPS AND VALVES |
| 2025-09-16 | IILU149318800 | SCHROEDER INDUSTRIES LCC | 539.78 kg | 841340.0 | PUMPS AND VALVES |
| 2025-09-16 | IILU148700000 | SCHROEDER INDUSTRIES LCC | 2688.03 kg | 841340.0 | PUMPS AND VALVES |
| 2025-09-16 | IILU149347400 | SCHROEDER INDUSTRIES LCC | 464.94 kg | 841340.0 | PUMPS AND VALVES |
| 2025-09-16 | IILU149367700 | SCHROEDER INDUSTRIES LCC | 845.96 kg | 841340.0 | PUMPS AND VALVES |
| 2025-08-18 | IILU148465400 | SCHROEDER INDUSTRIES LCC | 114.76 kg | 841340 | PUMPS AND VALVES |
| 2025-07-22 | IILU147517800 | SCHROEDER INDUSTRIES LCC | 1123.57 kg | 841340 | PUMPS AND VALVES PUMPS AND VALVES |
| 2025-07-22 | IILU147592000 | SCHROEDER INDUSTRIES LCC | 172.82 kg | 841340 | PUMPS AND VALVES |
| 2025-07-22 | IILU147593700 | SCHROEDER INDUSTRIES LCC | 86.64 kg | 841340 | PUMPS AND VALVES |
| 2025-07-07 | IILU147074800 | SCHROEDER INDUSTRIES LCC | 193.69 kg | 841340 | PUMPS AND VALVES |
| 2025-07-07 | IILU147337000 | SCHROEDER INDUSTRIES LCC | 2550.59 kg | 841340 | PUMPS AND VALVES PUMPS AND VALVES |
| 2025-07-02 | IILU146993400 | SCHROEDER INDUSTRIES LCC | 966.62 kg | 841340 | PUMPS AND VALVES |
| 2025-06-17 | IILU146300900 | SCHROEDER INDUSTRIES LCC | 176.0 kg | 841340 | PUMPS AND VALVES |
| 2025-06-17 | IILU146638800 | SCHROEDER INDUSTRIES LCC | 659.99 kg | 841340 | PUMPS AND VALVES |
| 2025-06-03 | IILU146123800 | SCHROEDER INDUSTRIES LCC | 289.85 kg | 841340 | PUMPS AND VALVES |
| 2025-05-13 | IILU145599900 | SCHROEDER INDUSTRIES LCC | 54.89 kg | 841340 | PUMPS AND VALVES |